• In Austria
  • List of Countries
  • For 7 days
  • Water Temperature
  • Satellite Maps
  • Weather Map
  • News
  • Weather Widgets
  • user-avatar
    Login

    Hourly Weather Solhan

    Today, 20 January, Saturday

    Time Temperature Precipitation Wind Pressure Humidity
    00:00 -3°C° 0 mm 2 mps 629 mmHg 85%
    01:00 -4°C° 0 mm 2 mps 629 mmHg 85%
    02:00 -4°C° 0 mm 2 mps 630 mmHg 85%
    03:00 -3°C° 0 mm 2 mps 630 mmHg 86%
    04:00 -3°C° 0 mm 2 mps 631 mmHg 85%
    05:00 -4°C° 0 mm 2 mps 631 mmHg 85%
    06:00 -4°C° 0 mm 2 mps 632 mmHg 85%
    07:00 -4°C° 0 mm 2 mps 632 mmHg 82%
    08:00 -4°C° 0 mm 2 mps 633 mmHg 79%
    09:00 -4°C° 0 mm 2 mps 633 mmHg 75%
    10:00 -3°C° 0 mm 2 mps 633 mmHg 72%
    11:00 0°C° 0 mm 1 mps 634 mmHg 69%
    12:00 +2°C° 0 mm 1 mps 634 mmHg 66%
    13:00 +2°C° 0 mm 1 mps 634 mmHg 65%
    14:00 +1°C° 0 mm 0 mps 634 mmHg 64%
    15:00 +3°C° 0 mm 1 mps 634 mmHg 65%
    16:00 +1°C° 0 mm 1 mps 634 mmHg 68%
    17:00 0°C° 0 mm 1 mps 634 mmHg 71%
    18:00 -1°C° 0 mm 1 mps 634 mmHg 74%
    19:00 -1°C° 0 mm 1 mps 635 mmHg 75%
    20:00 -2°C° 0 mm 1 mps 635 mmHg 76%
    21:00 -2°C° 0 mm 1 mps 635 mmHg 77%
    22:00 -2°C° 0 mm 1 mps 635 mmHg 78%
    23:00 -2°C° 0 mm 1 mps 635 mmHg 80%

    Tomorrow, 21 January, Sunday

    Time Temperature Precipitation Wind Pressure Humidity
    00:00 -2°C° 0 mm 1 mps 635 mmHg 81%
    01:00 -2°C° 0 mm 1 mps 636 mmHg 83%
    02:00 -3°C° 0 mm 1 mps 636 mmHg 85%
    03:00 -3°C° 0 mm 1 mps 636 mmHg 87%
    04:00 -3°C° 0 mm 1 mps 636 mmHg 88%
    05:00 -2°C° 0 mm 1 mps 636 mmHg 89%
    06:00 -2°C° 0 mm 1 mps 636 mmHg 90%
    07:00 -2°C° 0 mm 1 mps 636 mmHg 88%
    08:00 -1°C° 0 mm 1 mps 636 mmHg 87%
    09:00 -1°C° 0 mm 1 mps 637 mmHg 86%
    10:00 0°C° 0 mm 1 mps 637 mmHg 83%
    11:00 +1°C° 0 mm 1 mps 637 mmHg 80%
    12:00 +2°C° 0 mm 1 mps 637 mmHg 77%
    13:00 +2°C° 0 mm 1 mps 636 mmHg 76%
    14:00 +3°C° 0 mm 1 mps 636 mmHg 74%
    15:00 +3°C° 0 mm 1 mps 636 mmHg 73%
    16:00 +2°C° 0 mm 1 mps 636 mmHg 76%
    17:00 0°C° 0 mm 1 mps 635 mmHg 79%
    18:00 -1°C° 0 mm 1 mps 635 mmHg 82%
    19:00 -1°C° 0 mm 1 mps 635 mmHg 81%
    20:00 -1°C° 0 mm 1 mps 635 mmHg 81%
    21:00 -1°C° 0 mm 1 mps 635 mmHg 80%
    22:00 -1°C° 0 mm 1 mps 635 mmHg 79%
    23:00 -2°C° 0 mm 1 mps 635 mmHg 78%

    Day after tomorrow, 22 January, Monday

    Time Temperature Precipitation Wind Pressure Humidity
    00:00 -2°C° 0 mm 1 mps 635 mmHg 77%
    01:00 -2°C° 0 mm 1 mps 634 mmHg 75%
    02:00 -2°C° 0 mm 1 mps 634 mmHg 74%
    03:00 -2°C° 0 mm 1 mps 634 mmHg 72%
    04:00 -2°C° 0 mm 1 mps 633 mmHg 72%
    05:00 -2°C° 0 mm 1 mps 633 mmHg 71%
    06:00 -1°C° 0 mm 1 mps 632 mmHg 70%
    07:00 -1°C° 0 mm 1 mps 632 mmHg 69%
    08:00 -1°C° 0 mm 1 mps 632 mmHg 68%
    09:00 0°C° 0 mm 1 mps 632 mmHg 67%
    10:00 -1°C° 0 mm 2 mps 632 mmHg 64%
    11:00 +1°C° 0 mm 2 mps 632 mmHg 62%
    12:00 +2°C° 0 mm 2 mps 631 mmHg 60%
    13:00 +2°C° 0 mm 3 mps 631 mmHg 60%
    14:00 +2°C° 0 mm 3 mps 630 mmHg 59%
    15:00 +2°C° 0 mm 3 mps 630 mmHg 59%
    16:00 +1°C° 0 mm 2 mps 629 mmHg 62%
    17:00 -1°C° 0 mm 2 mps 629 mmHg 65%
    18:00 -3°C° 0 mm 2 mps 629 mmHg 68%
    19:00 -3°C° 0 mm 2 mps 629 mmHg 69%
    20:00 -3°C° 0 mm 2 mps 629 mmHg 70%
    21:00 -3°C° 0 mm 2 mps 630 mmHg 71%
    22:00 -3°C° 0 mm 2 mps 630 mmHg 72%
    23:00 -3°C° 0 mm 2 mps 630 mmHg 73%

    23 January, Tuesday

    Time Temperature Precipitation Wind Pressure Humidity
    00:00 -3°C° 0 mm 2 mps 630 mmHg 73%
    01:00 -4°C° 0 mm 2 mps 629 mmHg 73%
    02:00 -4°C° 0 mm 2 mps 629 mmHg 73%
    03:00 -4°C° 0 mm 2 mps 629 mmHg 72%
    04:00 -4°C° 0 mm 2 mps 629 mmHg 72%
    05:00 -4°C° 0 mm 2 mps 628 mmHg 72%
    06:00 -4°C° 0 mm 2 mps 628 mmHg 72%
    07:00 -4°C° 0 mm 2 mps 628 mmHg 71%
    08:00 -4°C° 0 mm 2 mps 628 mmHg 70%
    09:00 -4°C° 0 mm 3 mps 628 mmHg 69%
    10:00 -2°C° 0 mm 3 mps 628 mmHg 68%
    11:00 -2°C° 0 mm 4 mps 628 mmHg 66%
    12:00 0°C° 0 mm 4 mps 628 mmHg 65%
    13:00 -1°C° 0.5 mm 4 mps 627 mmHg 70%
    14:00 0°C° 0.5 mm 3 mps 627 mmHg 76%
    15:00 0°C° 0.5 mm 3 mps 627 mmHg 81%
    16:00 -1°C° 0.7 mm 2 mps 627 mmHg 85%
    17:00 -1°C° 0.7 mm 2 mps 627 mmHg 89%
    18:00 -2°C° 0.7 mm 2 mps 627 mmHg 93%
    19:00 -2°C° 0.4 mm 2 mps 627 mmHg 93%
    20:00 -2°C° 0.4 mm 2 mps 628 mmHg 93%
    21:00 0°C° 0.4 mm 1 mps 628 mmHg 94%
    22:00 0°C° 0.5 mm 1 mps 628 mmHg 94%
    23:00 0°C° 0.5 mm 1 mps 628 mmHg 94%

    24 January, Wednesday

    Time Temperature Precipitation Wind Pressure Humidity
    00:00 0°C° 0.5 mm 1 mps 628 mmHg 94%
    01:00 0°C° 0.6 mm 1 mps 628 mmHg 94%
    02:00 0°C° 0.6 mm 1 mps 628 mmHg 94%
    03:00 0°C° 0.6 mm 1 mps 628 mmHg 94%
    04:00 -2°C° 1 mm 2 mps 628 mmHg 94%
    05:00 -2°C° 1 mm 2 mps 628 mmHg 94%
    06:00 -2°C° 1 mm 2 mps 628 mmHg 95%
    07:00 -2°C° 1.1 mm 2 mps 629 mmHg 95%
    08:00 -2°C° 1.1 mm 2 mps 629 mmHg 95%
    09:00 -2°C° 1.1 mm 2 mps 630 mmHg 95%
    10:00 -1°C° 0.9 mm 2 mps 630 mmHg 95%
    11:00 -1°C° 0.9 mm 2 mps 630 mmHg 95%
    12:00 +1°C° 0.9 mm 2 mps 630 mmHg 96%
    13:00 +2°C° 1.4 mm 1 mps 630 mmHg 96%
    14:00 +2°C° 1.4 mm 1 mps 630 mmHg 96%
    15:00 +2°C° 1.4 mm 1 mps 630 mmHg 96%
    16:00 +1°C° 0.6 mm 1 mps 631 mmHg 95%
    17:00 +1°C° 0.6 mm 1 mps 631 mmHg 94%
    18:00 -1°C° 0.6 mm 0 mps 631 mmHg 94%
    19:00 0°C° 0.6 mm 1 mps 631 mmHg 94%
    20:00 0°C° 0.6 mm 1 mps 632 mmHg 94%
    21:00 0°C° 0.6 mm 1 mps 632 mmHg 94%
    22:00 0°C° 0.8 mm 1 mps 632 mmHg 94%
    23:00 0°C° 0.8 mm 1 mps 632 mmHg 94%

    25 January, Thursday

    Time Temperature Precipitation Wind Pressure Humidity
    00:00 0°C° 0.8 mm 1 mps 633 mmHg 94%
    01:00 0°C° 0.5 mm 1 mps 633 mmHg 94%
    02:00 0°C° 0.5 mm 1 mps 633 mmHg 94%
    03:00 -2°C° 0.5 mm 2 mps 633 mmHg 94%
    04:00 -2°C° 0.4 mm 2 mps 633 mmHg 94%
    05:00 -2°C° 0.4 mm 2 mps 633 mmHg 93%
    06:00 -2°C° 0.4 mm 2 mps 633 mmHg 93%
    07:00 -2°C° 0.4 mm 2 mps 633 mmHg 93%
    08:00 -2°C° 0.4 mm 2 mps 633 mmHg 93%
    09:00 -1°C° 0.4 mm 3 mps 633 mmHg 93%
    10:00 -1°C° 0.8 mm 3 mps 633 mmHg 94%
    11:00 -1°C° 0.8 mm 3 mps 633 mmHg 94%
    12:00 0°C° 0.8 mm 3 mps 632 mmHg 94%
    13:00 0°C° 0.7 mm 3 mps 632 mmHg 94%
    14:00 0°C° 0.7 mm 3 mps 632 mmHg 94%
    15:00 0°C° 0.7 mm 3 mps 632 mmHg 94%
    16:00 0°C° 0.4 mm 3 mps 632 mmHg 93%
    17:00 -1°C° 0.4 mm 3 mps 632 mmHg 93%
    18:00 -1°C° 0.4 mm 3 mps 632 mmHg 92%
    19:00 -2°C° 0.5 mm 3 mps 631 mmHg 91%
    20:00 -2°C° 0.5 mm 3 mps 631 mmHg 91%
    21:00 -2°C° 0.5 mm 3 mps 631 mmHg 91%
    22:00 -2°C° 0.5 mm 3 mps 631 mmHg 91%
    23:00 -2°C° 0.5 mm 3 mps 631 mmHg 91%
    Show more